Location: Bühlhof
(48.7849°N, 8.6361°E)
Time: 21:02:36
(UTC+00:00)

SAR-Lupe-1 - Pass Details

Date: 19 January 2026
Orbit: 479 x 484 km, 98.1° (Epoch: 10 January)

Event Time Altitude Azimuth Distance (km) Brightness Sun altitude
Rises 16:50:22 0° 147° (SSE) 2,527 7.6 -7.9°
Reaches altitude 10° 16:52:29 10° 139° (SE) 1,653 6.6 -8.2°
Maximum altitude 16:55:49 39° 70° (ENE) 733 4.5 -8.7°
Drops below altitude 10° 16:59:10 10° 0° (N) 1,668 6.6 -9.2°
Sets 17:01:19 0° 353° (N) 2,553 7.6 -9.6°
